Location: Amherst
(42.3800°N, 72.5240°W)
Time: 02:36:22
(UTC-04:00)

ISS - Pass Details

Date: 19 May 2021
Orbit: 417 x 422 km, 51.6° (Epoch: 18 June)

Event Time Altitude Azimuth Distance (km) Brightness Sun altitude
Rises 20:40:32 0° 250° (WSW) 2,353 0.6 -5.8°
Reaches altitude 10° 20:42:41 10° 256° (WSW) 1,493 -0.3 -6.1°
Maximum altitude 20:45:55 46° 332° (NNW) 569 -2.5 -6.6°
Drops below altitude 10° 20:49:12 10° 47° (NE) 1,503 -1.1 -7.1°
Sets 20:51:21 0° 54° (NE) 2,370 -0.1 -7.4°
